Temp
14 14 15 14 14 16 16 15 15 14 13 14 12 11 11 11 11 10 10 10 11 11 11 11 11 11 10 10 10 11 11 10 11 11 11 11 11 11 11 11 11 11 10 11 10 11 11 11 11
14 14 14 15 16 18 16 15 15 14 14 13 12 11 11 11 11 11 10 11 11 11 11 11 11 11 11 10 10 11 11 11 11 11 10 10 11 11 11 10 11 10 10 10 10 10 10 10 10
14 14 14 15 17 18 16 15 14 14 14 12 12 12 12 11 11 12 11 11 10 10 10 10 11 11 11 11 10 10 10 11 10 10 10 10 10 10 11 10 10 10 10 10 10 10 10 10 10
14 14 14 16 17 15 16 14 13 12 12 12 13 13 13 12 12 12 11 11 10 11 11 11 11 11 11 11 10 10 10 11 10 10 10 10 10 10 10 10 10 10 10 10 10 10 10 10 10
13 13 15 16 16 14 14 14 13 13 12 12 11 13 13 13 12 12 12 11 12 12 11 11 11 11 11 11 11 11 11 11 11 11 11 11 10 10 10 10 10 10 10 10 10 10 10 10 10
13 14 16 16 16 14 13 13 13 13 12 12 12 13 13 13 12 12 11 11 11 11 10 11 11 11 11 11 11 11 11 11 11 11 11 11 11 10 11 10 10 10 10 10 10 10 10 10 10
13 14 17 16 15 14 13 12 13 13 12 12 11 12 13 13 12 12 11 11 11 11 11 11 11 11 11 11 11 11 11 10 10 10 10 10 10 10 10 10 10 10 10 10 10 10 10 10 10
13 14 14 15 15 14 12 13 13 13 13 13 13 12 13 13 12 11 11 10 11 11 10 10 10 10 10 10 10 10 10 10 10 10 10 10 10 9 9 9 10 10 10 10 10 10 10 10 9
13 15 15 15 15 14 14 13 14 13 13 13 12 12 12 12 11 11 11 10 10 10 10 10 10 9 9 10 9 9 9 9 9 9 9 9 9 9 9 9 9 9 9 9 9 9 9 9 9
13 15 15 14 15 14 13 13 13 12 13 12 12 12 12 11 11 11 10 10 10 10 10 9 9 9 9 9 9 9 9 9 9 9 9 9 9 9 9 9 9 9 9 9 9 9 9 9 8
13 15 13 13 13 13 12 12 13 12 12 12 12 11 11 11 11 10 10 10 10 9 9 10 10 10 10 10 9 9 9 9 9 9 9 9 9 9 9 9 8 9 8 8 8 8 8 8 8
12 12 13 12 12 12 12 12 12 12 12 11 11 11 11 11 10 10 10 10 10 10 9 9 9 9 9 9 9 9 9 9 9 9 9 9 8 8 8 8 8 8 8 8 8 8 8 8 8
13 12 12 12 11 12 12 12 11 11 11 11 11 11 10 10 10 10 10 10 9 9 9 9 9 9 9 8 8 8 8 8 8 8 8 7 8 8 8 7 7 7 7 7 7 7 7 7 8
11 12 11 11 11 11 11 11 11 11 11 11 11 10 10 10 10 10 10 9 9 9 9 9 9 8 9 8 8 8 8 8 7 6 6 6 6 7 7 7 7 7 7 7 7 7 7 7 7
11 11 11 11 11 11 11 11 11 11 11 10 10 10 10 10 10 9 9 9 9 9 8 8 8 8 8 8 8 8 7 7 7 6 5 5 5 5 5 5 5 6 6 7 7 7 7 7 7
12 12 12 11 11 11 11 12 11 11 11 10 10 10 10 10 9 9 9 9 9 8 8 8 8 8 8 7 7 7 7 7 7 6 6 5 5 5 5 4 4 4 4 5 6 7 7 7 7
12 13 13 12 11 11 11 13 11 11 11 10 10 10 10 10 10 9 9 9 8 8 8 8 7 7 7 7 7 6 6 6 6 6 6 6 5 5 5 5 5 4 4 4 4 5 6 7 7
13 13 13 13 11 11 11 12 12 11 11 11 10 10 10 10 10 9 9 9 8 8 8 7 7 7 6 6 6 6 6 5 5 5 5 5 5 4 4 4 5 5 5 5 5 5 5 5 7
13 13 13 12 11 11 12 12 11 10 10 10 10 10 10 10 10 9 9 8 8 8 7 7 7 6 6 6 5 5 4 4 4 4 4 4 4 4 4 4 4 4 5 5 5 5 5 5 5
12 12 12 11 11 11 12 12 12 10 10 10 10 10 10 10 10 9 9 8 7 7 7 6 6 6 6 5 5 4 4 4 4 4 4 4 4 4 4 4 3 3 4 4 5 5 5 5 5
11 12 13 12 11 11 11 12 11 10 10 10 9 9 9 10 9 9 8 7 7 7 6 6 6 6 5 5 4 4 4 4 3 3 3 3 3 3 4 4 4 4 4 4 4 5 5 5 5
12 11 11 11 11 13 11 14 12 11 10 10 10 10 10 10 9 7 7 7 6 7 6 6 6 5 5 4 4 4 4 3 3 3 3 3 3 3 4 4 4 4 4 4 4 4 5 5 5
11 10 10 10 11 11 12 12 13 11 10 10 9 9 9 9 8 7 6 5 6 7 6 6 6 5 5 4 4 4 3 3 3 3 3 4 3 4 4 3 4 4 4 4 3 3 3 4 4
10 9 9 9 11 11 12 12 14 13 11 11 9 10 10 9 8 6 6 7 6 6 6 6 5 5 4 4 4 3 3 3 4 4 4 4 4 3 2 2 1 2 2 2 2 1 2 2 3
9 10 11 12 12 13 10 10 13 10 9 9 8 9 9 8 7 6 7 6 6 6 6 5 5 4 4 4 4 3 4 4 4 4 4 4 4 3 1 -0 -1 -0 -0 -0 -1 -1 0 1 1
10 11 11 9 13 14 9 11 11 10 9 9 9 8 8 7 7 6 7 6 6 6 5 5 4 4 4 4 4 4 4 4 4 4 3 3 3 2 1 -1 -1 -1 -1 -1 -1 -1 -1 -1 0
10 10 10 10 9 10 13 11 9 9 8 9 8 7 7 6 7 7 7 6 6 5 5 4 4 4 4 4 4 4 4 4 4 3 2 2 2 0 -1 -1 -1 -1 -0 -0 -1 -1 -2 -1 -1
9 10 9 9 9 11 13 11 11 9 9 8 8 7 6 6 7 7 6 6 5 5 4 4 4 4 4 3 4 4 3 3 3 2 2 1 1 0 -0 -0 -1 -1 -0 -0 -0 -1 -1 -1 -1
8 9 9 10 10 10 10 12 10 9 9 8 8 7 6 7 7 6 6 5 5 4 4 4 3 3 3 4 4 3 3 3 2 1 0 1 1 -0 -0 -0 -0 -0 -0 -0 -1 -1 -1 -1 -1
10 10 10 10 10 8 9 9 9 8 8 7 7 7 6 6 6 6 5 5 4 4 4 3 3 3 3 3 3 3 3 2 1 -0 -0 -0 -0 -0 1 0 -0 0 0 -0 -0 0 -1 -1 -1
Height
3188 3188 3189 3190 3195 3190 3191 3194 3194 3194 3193 3190 3189 3190 3189 3189 3191 3196 3194 3194 3195 3194 3194 3195 3196 3197 3197 3198 3198 3199 3199 3200 3201 3201 3202 3203 3203 3203 3204 3204 3204 3204 3204 3204 3204 3203 3203 3203 3203
3188 3188 3189 3190 3191 3188 3193 3194 3195 3195 3193 3190 3189 3189 3190 3191 3191 3193 3194 3194 3195 3195 3195 3196 3196 3197 3198 3198 3199 3199 3200 3200 3200 3201 3201 3202 3202 3202 3202 3202 3203 3203 3202 3203 3203 3202 3202 3201 3201
3187 3189 3191 3192 3188 3186 3192 3195 3195 3193 3192 3193 3191 3190 3190 3192 3193 3194 3195 3195 3196 3196 3196 3196 3197 3198 3199 3199 3199 3200 3200 3201 3201 3201 3201 3201 3201 3201 3201 3202 3201 3201 3201 3201 3200 3200 3200 3199 3199
3187 3190 3191 3191 3189 3190 3193 3195 3195 3195 3195 3194 3193 3193 3193 3194 3195 3195 3196 3197 3198 3198 3198 3198 3199 3199 3199 3200 3200 3200 3201 3201 3201 3201 3201 3201 3201 3201 3201 3201 3200 3200 3199 3199 3199 3198 3197 3196 3196
3187 3188 3192 3190 3190 3191 3192 3195 3196 3198 3198 3197 3197 3195 3196 3196 3196 3197 3198 3198 3199 3199 3200 3200 3201 3200 3201 3201 3201 3201 3202 3202 3201 3201 3201 3200 3200 3200 3200 3199 3199 3199 3198 3197 3197 3196 3195 3194 3193
3188 3188 3189 3188 3190 3191 3194 3196 3198 3199 3199 3199 3199 3197 3198 3198 3198 3198 3199 3200 3200 3200 3201 3201 3201 3202 3202 3202 3202 3203 3202 3202 3202 3201 3200 3200 3199 3199 3198 3198 3198 3197 3196 3195 3194 3193 3191 3190 3189
3187 3188 3185 3186 3190 3193 3193 3195 3198 3200 3200 3199 3199 3199 3200 3200 3199 3199 3200 3201 3201 3201 3201 3202 3202 3202 3202 3202 3202 3202 3202 3201 3200 3200 3199 3199 3198 3197 3196 3195 3194 3193 3192 3191 3189 3188 3187 3186 3185
3184 3188 3188 3188 3190 3193 3192 3194 3196 3201 3198 3199 3200 3202 3201 3200 3200 3200 3201 3201 3201 3202 3202 3202 3202 3202 3201 3201 3201 3201 3200 3199 3199 3199 3198 3197 3195 3194 3193 3192 3191 3190 3188 3187 3185 3184 3182 3181 3179
3184 3188 3187 3189 3190 3192 3192 3195 3196 3197 3199 3199 3199 3200 3200 3200 3201 3201 3201 3201 3202 3202 3202 3202 3201 3201 3201 3200 3199 3198 3197 3197 3196 3195 3195 3194 3192 3190 3188 3186 3186 3184 3183 3181 3179 3178 3176 3175 3173
3186 3186 3187 3189 3190 3192 3194 3197 3197 3199 3199 3200 3199 3199 3200 3200 3201 3202 3202 3202 3202 3202 3201 3201 3200 3199 3198 3197 3196 3195 3194 3193 3192 3190 3189 3188 3186 3184 3183 3179 3179 3177 3176 3174 3172 3171 3169 3168 3166
3185 3186 3186 3187 3190 3193 3195 3196 3197 3200 3202 3200 3200 3199 3199 3200 3201 3202 3202 3202 3201 3201 3200 3199 3198 3197 3195 3194 3193 3192 3191 3189 3187 3185 3183 3182 3179 3177 3176 3174 3171 3169 3168 3167 3164 3164 3162 3160 3159
3186 3184 3187 3187 3189 3193 3195 3196 3198 3200 3200 3199 3199 3199 3199 3200 3201 3202 3201 3201 3200 3199 3199 3198 3197 3195 3194 3192 3191 3188 3185 3182 3180 3178 3176 3174 3172 3170 3168 3166 3165 3162 3160 3158 3157 3156 3154 3153 3152
3186 3185 3186 3188 3190 3194 3195 3196 3197 3198 3197 3197 3198 3199 3199 3200 3201 3201 3200 3200 3199 3198 3197 3196 3193 3192 3191 3189 3186 3183 3180 3177 3174 3171 3169 3167 3164 3162 3159 3157 3155 3153 3151 3149 3148 3147 3145 3144 3144
3184 3186 3187 3189 3191 3192 3195 3195 3195 3195 3195 3196 3197 3198 3198 3199 3200 3201 3200 3200 3199 3198 3196 3195 3192 3190 3188 3185 3182 3179 3176 3172 3169 3165 3162 3160 3157 3155 3151 3149 3146 3143 3141 3140 3137 3135 3134 3134 3134
3183 3187 3187 3189 3190 3191 3193 3194 3193 3193 3194 3195 3196 3196 3197 3198 3198 3199 3198 3197 3196 3195 3194 3192 3190 3188 3185 3181 3178 3174 3171 3167 3164 3161 3158 3155 3152 3148 3145 3141 3138 3135 3132 3129 3127 3125 3124 3122 3122
3184 3186 3186 3187 3188 3190 3191 3190 3192 3191 3193 3193 3194 3195 3195 3196 3196 3196 3195 3194 3193 3192 3191 3190 3188 3185 3182 3179 3176 3173 3169 3165 3161 3156 3152 3149 3145 3142 3140 3136 3132 3127 3123 3120 3117 3115 3113 3111 3110
3182 3180 3182 3184 3186 3187 3188 3187 3189 3189 3190 3192 3192 3193 3193 3193 3193 3192 3191 3191 3190 3190 3188 3187 3184 3182 3179 3176 3173 3169 3166 3162 3158 3152 3147 3141 3138 3134 3131 3128 3124 3120 3116 3111 3108 3104 3101 3099 3099
3176 3178 3179 3180 3183 3184 3185 3185 3186 3186 3187 3189 3189 3190 3190 3190 3189 3189 3188 3187 3186 3186 3185 3183 3181 3178 3176 3173 3169 3165 3161 3156 3151 3147 3142 3137 3131 3125 3120 3117 3112 3109 3105 3100 3097 3093 3091 3088 3086
3174 3175 3176 3178 3179 3181 3181 3182 3183 3184 3184 3186 3186 3186 3186 3186 3187 3185 3185 3185 3184 3184 3182 3180 3177 3173 3171 3168 3164 3159 3155 3151 3146 3141 3135 3129 3124 3118 3111 3104 3099 3095 3091 3087 3085 3081 3077 3076 3075
3172 3173 3175 3176 3176 3178 3178 3177 3179 3179 3179 3181 3182 3182 3182 3181 3181 3181 3181 3181 3181 3180 3178 3175 3171 3168 3165 3161 3157 3153 3149 3145 3139 3134 3128 3121 3115 3109 3102 3094 3087 3081 3076 3073 3070 3068 3065 3062 3062
3170 3171 3171 3173 3173 3174 3174 3173 3173 3174 3175 3176 3177 3178 3177 3177 3176 3177 3176 3177 3176 3175 3172 3169 3166 3163 3159 3156 3150 3146 3141 3135 3129 3124 3117 3110 3103 3096 3089 3084 3076 3067 3062 3057 3054 3053 3051 3049 3050
3168 3169 3170 3171 3172 3169 3169 3165 3164 3168 3168 3170 3171 3172 3172 3171 3171 3172 3172 3172 3172 3170 3167 3164 3161 3158 3153 3149 3144 3139 3133 3127 3120 3112 3104 3096 3089 3081 3074 3069 3063 3056 3048 3043 3039 3036 3035 3033 3032
3166 3166 3168 3169 3168 3167 3166 3167 3161 3162 3165 3166 3166 3166 3167 3166 3166 3168 3169 3170 3165 3165 3162 3159 3156 3151 3147 3142 3137 3131 3124 3117 3109 3101 3091 3082 3073 3065 3057 3051 3046 3042 3037 3030 3024 3020 3017 3016 3016
3165 3166 3166 3166 3165 3163 3161 3162 3154 3156 3159 3161 3162 3161 3162 3162 3162 3164 3165 3163 3162 3160 3157 3154 3150 3145 3140 3135 3129 3122 3115 3107 3098 3089 3079 3069 3059 3049 3039 3032 3028 3024 3021 3018 3012 3006 3001 2999 2997
3164 3165 3161 3159 3157 3155 3158 3160 3153 3155 3155 3156 3157 3158 3158 3159 3160 3161 3160 3159 3158 3155 3152 3148 3144 3138 3134 3128 3121 3114 3106 3097 3087 3076 3066 3056 3045 3035 3026 3019 3015 3012 3009 3006 3002 2996 2991 2986 2983
3159 3160 3160 3160 3150 3147 3157 3153 3150 3151 3151 3153 3154 3155 3155 3156 3159 3157 3156 3154 3152 3149 3146 3142 3137 3132 3126 3120 3113 3105 3095 3085 3075 3065 3055 3045 3035 3026 3019 3013 3008 3005 3001 2996 2992 2987 2981 2975 2971
3156 3157 3158 3157 3158 3155 3147 3150 3150 3150 3150 3150 3151 3152 3153 3154 3152 3152 3151 3149 3146 3143 3140 3135 3131 3125 3118 3111 3103 3094 3084 3074 3064 3055 3045 3037 3028 3018 3011 3006 3002 2997 2993 2987 2983 2978 2973 2968 2963
3151 3151 3154 3155 3155 3148 3141 3147 3148 3148 3149 3149 3150 3149 3150 3149 3148 3146 3145 3143 3140 3137 3133 3129 3123 3117 3109 3102 3092 3082 3073 3064 3054 3045 3037 3029 3021 3011 3004 2999 2994 2990 2985 2979 2974 2971 2967 2964 2959
3146 3146 3148 3148 3149 3149 3147 3143 3145 3147 3148 3148 3148 3148 3148 3144 3142 3141 3139 3137 3134 3130 3126 3121 3115 3108 3101 3091 3081 3072 3063 3054 3046 3037 3030 3023 3015 3007 2999 2993 2988 2982 2976 2972 2967 2964 2960 2956 2953
3141 3142 3143 3143 3145 3147 3147 3146 3142 3143 3144 3144 3145 3144 3142 3139 3137 3136 3133 3131 3127 3124 3119 3113 3106 3099 3089 3079 3071 3062 3053 3045 3038 3031 3023 3016 3010 3003 2995 2988 2982 2976 2970 2966 2962 2957 2954 2951 2949
Wind_Speed
3 7 7 10 4 6 11 8 12 11 7 7 6 6 6 4 6 8 11 8 5 5 4 2 2 2 2 2 1 1 1 1 1 2 2 3 4 4 5 5 5 5 6 6 6 6 6 6 7
4 10 12 12 8 15 11 12 13 9 9 7 4 4 4 8 13 16 12 7 5 6 4 3 2 3 3 3 2 2 2 2 3 3 4 4 5 5 6 7 8 8 8 9 10 10 10 10 10
7 13 12 6 10 10 13 13 11 12 11 7 5 7 8 12 14 12 9 7 4 4 3 2 1 2 3 4 3 3 3 4 4 4 5 6 6 7 8 9 9 10 12 12 12 14 14 14 14
10 13 10 9 12 11 13 14 14 13 10 10 8 10 14 15 8 6 5 5 5 1 0 1 2 2 2 4 4 5 5 6 6 7 8 8 9 9 10 11 12 13 14 15 17 17 18 18 19
11 14 11 11 14 12 18 15 14 10 9 10 9 15 12 8 6 6 3 4 3 1 1 2 2 2 3 4 5 6 8 9 9 10 10 11 11 10 11 12 13 15 17 19 20 21 22 23 23
9 14 13 17 15 16 17 17 13 10 11 11 12 12 9 4 5 3 3 3 1 2 1 3 3 4 5 6 6 8 9 11 12 13 14 13 12 10 9 10 13 15 17 19 21 25 26 26 27
10 13 12 14 19 20 19 16 10 9 12 11 10 12 8 5 5 4 2 1 2 1 3 6 6 9 9 8 7 8 9 12 13 15 15 14 11 10 14 17 21 24 26 25 24 23 26 31 31
15 10 13 14 22 22 20 18 12 12 13 10 11 6 6 5 4 3 3 2 4 1 6 9 9 11 10 9 11 12 13 14 15 15 15 16 17 21 22 24 27 28 30 30 29 28 27 29 33
20 13 16 16 19 19 24 16 15 16 11 9 11 7 6 7 6 3 3 3 5 5 10 10 11 13 13 16 17 17 17 17 20 22 22 25 28 31 32 34 33 33 33 33 33 32 32 33 35
13 13 14 14 14 21 21 13 16 15 12 8 9 6 8 8 7 2 1 3 6 11 14 15 13 14 15 17 18 20 21 23 25 27 28 31 33 36 37 39 37 36 36 36 37 36 36 35 35
12 12 13 17 15 18 18 14 15 11 9 7 6 8 11 11 6 3 2 5 9 10 10 10 10 14 18 22 24 26 28 30 31 31 32 34 36 38 39 40 40 40 40 38 39 38 37 36 35
10 11 13 17 19 19 16 13 12 12 8 11 11 12 9 6 9 6 1 5 3 8 5 8 12 14 17 16 17 20 22 23 27 31 35 39 41 42 42 43 42 44 43 43 42 41 41 39 38
11 13 15 19 19 15 14 12 11 13 13 16 14 11 8 11 11 6 8 7 6 4 8 13 17 19 25 22 21 20 21 23 24 25 27 29 32 34 36 40 41 44 46 46 46 46 46 45 44
12 13 15 16 17 16 11 13 12 13 11 16 14 13 11 9 7 3 3 3 6 7 11 14 17 21 27 25 24 23 24 26 27 27 25 25 28 31 32 34 36 38 40 42 45 48 49 50 49
14 13 13 16 16 14 12 13 15 13 13 14 16 14 11 9 8 5 4 3 4 6 10 13 17 22 26 27 26 25 28 32 31 29 27 25 25 27 29 31 32 35 37 39 42 44 45 46 48
14 14 16 17 17 14 13 13 15 15 14 12 16 15 12 10 10 9 8 8 7 8 11 14 18 23 27 26 23 26 29 32 32 34 34 31 28 27 26 27 30 32 35 38 40 42 44 45 46
14 14 18 15 16 13 17 11 16 14 16 15 13 14 14 14 13 12 13 13 12 11 13 16 20 24 25 22 25 27 29 31 33 35 38 41 40 39 37 35 35 35 35 36 39 43 44 46 45
15 14 16 15 18 19 18 15 15 17 15 11 12 15 17 16 14 16 18 17 17 16 16 18 20 25 25 26 28 30 32 34 38 40 41 43 46 49 50 48 46 43 42 41 40 42 44 47 47
13 14 14 13 11 19 20 20 16 19 20 20 18 18 18 18 18 22 22 21 21 18 17 19 21 24 26 29 29 32 36 39 42 45 47 50 52 53 56 58 55 53 50 46 44 42 44 47 48
14 14 13 11 10 13 16 20 21 21 22 23 20 21 20 22 24 24 23 24 22 18 19 20 21 25 28 31 32 35 38 41 45 48 51 55 57 58 58 59 61 58 54 50 46 44 43 45 45
13 14 13 13 10 12 12 18 23 22 23 24 24 23 24 26 26 27 26 25 21 20 21 20 22 27 30 32 35 38 41 46 50 52 56 59 64 64 62 59 58 57 55 53 50 47 46 46 45
12 12 11 12 13 18 14 21 24 21 23 26 26 25 26 27 28 26 27 26 23 24 23 24 27 29 33 34 37 41 45 50 54 59 64 67 68 67 63 59 57 56 57 55 54 52 50 50 50
6 7 9 9 11 12 13 13 16 15 18 23 24 25 24 25 26 24 23 18 28 25 25 28 30 32 35 38 40 44 49 54 60 64 68 69 67 66 66 63 60 56 53 54 53 52 52 52 52
11 6 7 9 10 14 16 15 12 15 12 14 18 16 18 17 16 19 22 25 25 25 27 30 33 35 38 40 44 49 53 60 65 67 66 66 65 66 64 59 52 49 46 44 45 47 49 50 52
10 8 10 9 9 6 3 8 17 6 9 12 10 14 11 10 12 14 17 22 23 27 30 33 35 38 40 44 48 52 59 63 66 64 62 62 59 51 44 40 36 33 32 34 38 40 44 44 45
15 12 4 4 3 4 6 7 3 5 8 10 11 11 10 9 11 15 17 21 25 29 32 35 37 39 43 48 52 58 63 64 60 59 56 49 45 43 35 30 26 29 32 31 34 36 36 35 36
13 15 11 10 9 11 9 6 9 7 5 7 10 9 10 11 16 16 19 25 29 31 33 36 39 43 47 51 58 61 62 57 56 52 48 44 42 42 36 30 30 30 29 28 28 30 28 28 28
17 10 8 11 4 8 5 7 10 4 6 7 9 9 12 15 16 19 23 28 30 33 36 38 42 46 51 56 60 60 55 53 51 47 42 36 36 37 34 28 28 27 28 34 27 27 21 21 22
14 17 13 8 6 4 5 5 5 7 6 8 9 10 14 19 22 24 28 30 31 34 36 40 45 49 54 58 57 54 51 48 44 41 38 31 31 32 28 26 30 35 28 24 25 21 18 21 17
15 15 16 15 9 9 11 15 8 11 13 11 9 13 17 23 26 28 29 30 31 33 37 43 48 54 56 55 51 50 47 44 39 35 31 31 28 29 29 29 28 23 24 21 21 23 22 20 20
Wind_Direction
124 149 144 135 135 174 138 139 124 122 103 100 131 94 152 104 93 129 111 105 115 98 95 143 118 143 185 154 137 156 126 81 313 281 257 259 262 269 278 282 283 286 286 285 284 283 282 283 285
134 142 139 135 182 161 138 138 131 128 127 114 95 56 120 128 118 119 126 134 121 111 118 164 148 186 201 207 189 191 221 214 209 227 239 245 254 258 256 259 269 271 271 274 276 275 273 273 273
151 150 142 180 190 146 148 144 141 132 116 105 83 132 141 140 127 119 115 114 129 146 163 176 199 223 224 222 220 240 241 247 249 253 250 259 259 260 265 268 266 269 273 272 272 273 272 269 268
155 156 171 174 177 158 153 149 150 137 130 104 122 113 120 137 138 122 119 87 117 161 162 306 262 246 264 249 246 247 248 257 261 264 269 267 269 271 274 275 277 278 277 277 277 273 271 270 269
161 170 194 196 171 169 144 154 141 138 134 121 116 136 133 149 148 140 120 97 89 179 216 258 302 321 275 267 266 266 268 268 270 273 271 271 272 274 281 286 290 293 293 289 284 280 276 274 272
173 181 199 187 178 160 153 154 154 147 142 134 139 140 141 142 159 153 106 53 4 219 254 326 334 328 321 321 312 303 300 303 301 294 285 277 275 282 297 308 313 310 308 307 303 290 281 277 274
175 196 197 174 169 160 163 160 155 159 151 154 151 159 127 146 184 158 101 3 240 257 349 328 342 330 313 307 302 307 308 314 313 302 289 282 274 282 294 300 301 305 304 303 303 299 294 283 275
184 181 180 177 172 165 175 172 169 151 180 159 147 189 139 129 171 188 296 289 230 250 328 315 312 315 297 297 300 289 298 297 297 299 290 276 269 280 289 292 292 295 297 297 295 291 292 292 281
181 187 189 182 180 182 175 176 181 176 165 167 186 177 173 165 177 204 291 312 253 265 313 303 291 297 292 292 290 290 292 279 284 283 280 279 278 282 284 286 288 286 287 285 283 282 281 281 280
174 198 187 174 175 172 166 170 179 182 179 190 205 198 179 170 168 144 41 296 281 280 291 296 304 306 302 297 294 292 289 283 281 280 275 275 273 275 280 282 283 281 281 281 279 280 278 279 280
186 194 193 175 160 173 164 169 172 171 187 204 235 211 168 147 131 102 292 271 274 279 292 312 319 300 289 286 287 285 283 280 277 275 273 273 275 276 278 280 281 282 280 277 277 279 279 277 277
165 150 164 167 156 161 164 167 171 172 192 205 183 177 171 132 112 80 3 262 12 73 55 3 358 3 356 338 324 317 311 303 294 287 282 279 278 278 279 279 280 279 278 276 273 272 272 274 274
165 155 151 159 157 162 175 177 194 191 205 193 188 171 147 134 134 85 47 136 119 344 338 349 351 351 343 332 324 322 325 324 316 306 299 292 286 284 283 280 277 275 274 274 273 271 269 269 270
174 164 158 156 165 175 178 190 193 204 191 187 185 178 170 160 155 135 82 147 264 303 329 340 339 337 337 333 327 328 333 335 333 330 321 305 293 288 284 283 282 279 276 274 272 271 270 268 267
164 165 171 178 177 183 183 201 195 198 182 195 195 188 192 198 196 210 234 254 294 317 333 334 335 331 332 328 323 332 334 335 335 333 329 320 308 298 293 291 288 283 280 278 275 273 271 269 267
184 194 192 198 194 203 195 205 198 193 184 198 212 207 213 222 230 238 259 273 288 309 323 325 327 327 327 325 320 323 326 330 333 334 333 332 327 315 303 296 294 290 289 285 281 277 275 273 271
193 203 206 190 199 210 199 225 205 192 186 198 207 213 224 232 243 256 267 276 288 300 311 315 318 322 323 328 324 321 323 325 329 328 328 329 329 325 319 311 303 294 288 284 283 281 280 276 273
203 221 206 214 214 213 219 219 215 208 197 209 215 214 221 227 236 255 263 275 287 295 303 306 307 319 318 316 321 322 324 325 326 325 323 323 324 322 318 314 310 303 296 288 284 279 275 276 276
217 217 212 206 210 212 221 227 226 212 207 209 217 223 224 233 246 254 262 270 276 284 290 297 305 314 316 319 318 320 323 323 322 321 320 319 318 316 314 313 311 307 301 293 288 282 276 272 273
204 206 206 203 205 205 229 230 222 221 221 223 229 229 238 243 246 254 265 270 271 280 285 300 311 311 313 318 317 316 317 317 315 315 314 313 313 313 312 310 307 304 300 296 292 286 278 272 269
206 216 219 233 210 222 229 235 225 225 226 227 229 233 239 250 250 253 261 267 267 276 281 303 307 304 307 315 311 311 313 314 313 311 311 309 309 309 307 305 303 301 299 296 294 289 282 276 269
218 220 221 225 231 247 220 258 219 225 231 232 237 243 258 265 255 247 255 257 267 270 284 295 299 301 304 309 307 309 309 312 312 312 311 310 308 307 306 303 301 298 297 295 292 289 285 280 276
238 210 218 224 239 255 238 251 258 215 233 236 241 248 254 258 255 243 241 253 263 276 285 293 298 300 303 306 307 308 309 311 312 311 310 309 307 307 304 300 296 293 291 291 290 287 284 280 276
231 228 225 237 239 242 243 236 259 226 241 238 234 242 243 249 236 226 232 257 268 278 285 290 295 299 301 304 307 309 311 311 311 311 310 309 309 306 304 298 293 289 289 288 288 289 287 282 276
202 209 233 223 206 244 142 234 250 227 233 232 234 244 226 204 201 216 250 257 275 279 286 291 295 297 300 304 307 309 310 310 310 311 311 313 312 314 315 308 299 293 291 292 296 290 294 287 279
217 227 223 269 208 135 202 245 206 247 221 229 231 221 211 203 207 231 259 269 275 280 286 292 294 296 300 305 308 310 311 311 312 313 315 315 317 318 321 315 303 302 301 297 295 298 300 293 287
218 232 237 245 267 271 256 251 264 240 218 211 197 206 207 212 237 256 267 272 277 284 288 291 294 298 303 307 310 311 312 314 314 316 316 315 317 318 316 314 309 305 301 299 303 299 301 301 297
215 213 211 218 254 264 192 266 273 211 201 218 215 217 212 237 254 265 270 274 280 286 289 292 296 302 306 310 311 312 314 315 316 319 316 317 321 326 315 309 313 314 307 306 296 298 300 305 303
206 220 221 231 246 257 296 295 207 220 252 246 245 248 226 250 257 264 270 277 283 287 290 295 300 305 308 311 311 313 315 316 317 317 316 316 330 334 332 321 313 314 311 313 307 304 304 306 313
227 228 217 221 215 225 264 270 265 248 265 235 244 230 227 254 264 267 273 282 284 288 294 300 305 308 310 311 314 316 317 317 315 312 315 322 330 331 333 327 328 318 319 318 313 307 300 298 298